Regional Weather Roundup
Issued by NWS Kansas City/Pleasant Hill, MO

Home | Current Version | Previous Version | Text Only | Print | Product List | Glossary On
Versions: 1 2 3 4 5 6 7 8 9 10 11 12 13 14 15 16 17 18 19 20 21 22 23 24 25 26 27 28 29 30 31 32 33 34 35 36 37 38 39 40 41 42 43 44 45 46 47 48 49 50
000
ASUS43 KEAX 120410
RWREAX

WEATHER ROUNDUP FOR EASTERN KANSAS AND NORTHWEST MISSOURI
NATIONAL WEATHER SERVICE KANSAS CITY/PLEASANT HILL MO
1000 PM CST THU FEB 11 2016

KSZ040-057-103>105-MOZ028-029-037-043-120500-
...KANSAS CITY METROPOLITAN AREA...

CITY           SKY/WX    TMP DP  RH WIND       PRES   REMARKS
K.C. INTL      CLOUDY    31  21  66 E8        30.18S WCI  23
K.C. DOWNTOWN  CLOUDY    33  21  61 E8        30.19R WCI  26
LEES SUMMIT    CLOUDY    33  20  58 E7        30.18F WCI  27
OLATHE - IXD   PTCLDY    33  23  66 CALM      30.19R
OLATHE - OJC   CLOUDY    32  21  64 CALM      30.18F
LAWRENCE       PTCLDY    32  23  69 SE3       30.18F

$$

MOZ001>008-011>017-020>025-030>033-038>040-044>046-053-054-120500-
...NORTHERN AND CENTRAL MISSOURI...

CITY           SKY/WX    TMP DP  RH WIND       PRES   REMARKS
ST. JOSEPH     MOCLDY    31  21  66 SE5       30.19F WCI  26
MOSBY          CLOUDY    32  21  64 E3        30.21S
WARRENSBURG    CLOUDY    32  21  64 N7        30.20R WCI  26
WHITEMAN AFB   MOCLDY    31  21  65 VRB2      30.18F
CLINTON          N/A     34  27  75 SE13      30.15F WCI  25
SEDALIA        FLURRIES  32  20  61 SE10      30.16F WCI  24
WARSAW         NOT AVBL
CHILLICOTHE      N/A     27  14  58 E5        30.24R WCI  22
KIRKSVILLE     CLOUDY    23  11  60 E7        30.23F WCI  15

$$

MOZ041-047>049-056>058-063>065-088>090-097-120500-
...EASTERN AND SOUTHERN MISSOURI...

CITY           SKY/WX    TMP DP  RH WIND       PRES   REMARKS
ST. LOUIS INTL CLOUDY    28  12  51 E7        30.27S WCI  21
SPIRIT OF STL  CLOUDY    28  11  48 E3        30.27S
COLUMBIA       LGT SNOW  28  21  75 E9        30.22R WCI  19
JEFFERSON CITY CLOUDY    30  20  66 E6        30.25R WCI  24
ROLLA          CLOUDY    29  20  69 E8        30.18S WCI  21
OSAGE BEACH    CLOUDY    34  19  55 N3        30.21R
SPRINGFIELD    CLOUDY    38  22  52 N3        30.16R
BRANSON        CLOUDY    39  19  45 SE6       30.16S WCI  35
JOPLIN         PTCLDY    38  23  55 CALM      30.17S
WEST PLAINS    CLOUDY    34  19  54 SE8       30.18F WCI  27

$$

IAZ060-094-KSZ022-034>040-054-083-096-NEZ052-066-093-120500-
...KANSAS...SOUTHEAST NEBRASKA AND IOWA...

CITY           SKY/WX    TMP DP  RH WIND       PRES   REMARKS
TOPEKA         PTCLDY    35  22  58 S5        30.17F WCI  31
MANHATTAN      MOCLDY    31  26  82 CALM      30.17S
EMPORIA        PTCLDY    27  21  78 S7        30.17F WCI  19
CHANUTE        CLOUDY    34  24  67 N5        30.21R WCI  30
WICHITA        CLOUDY    31  24  75 CALM      30.17F
OMAHA          CLOUDY    25  19  78 CALM      30.21S
LINCOLN        CLOUDY    30  24  78 NE6       30.20R WCI  24
FALLS CITY     PTCLDY    29  22  75 N3        30.18R
LAMONI         LGT SNOW  22  16  78 E7        30.20F WCI  13
DES MOINES     LGT SNOW  19  14  81 E3        30.25S

$$




USA.gov is the U.S. government's official web portal to all federal, state and local government web resources and services.